Regional Weather Roundup
Issued by NWS Goodland, KS

Home | Current Version | Previous Version | Graphics & Text | Print | Product List | Glossary On
Versions: 1 2 3 4 5 6 7 8 9 10 11 12 13 14 15 16 17 18 19 20 21 22 23 24 25 26 27 28 29 30 31 32 33 34 35 36 37 38 39 40 41 42 43 44 45 46 47 48 49 50
000
ASUS43 KGLD 191808
RWRGLD

GOODLAND FORECAST AREA HOURLY WEATHER ROUNDUP
NATIONAL WEATHER SERVICE GOODLAND KS
1100 AM MST THU JAN 19 2017

...OFFICIAL OBSERVATIONS...

CITY           SKY/WX    TMP DP  RH WIND       PRES   REMARKS
GOODLAND KS    FOG       32  32 100 S6        29.61F VSB 1/4
HILL CITY KS   CLOUDY    45  42  89 S9        29.63F
IMPERIAL NEB   SUNNY     35  28  75 SE6       29.62F
MCCOOK NEB     CLOUDY    38  38 100 CALM      29.63F FOG
AKRON CO       SUNNY     39  25  57 W10       29.60F
BURLINGTON CO  SUNNY     42  29  59 NW7       29.60F
LIMON CO       SUNNY     49  19  30 W5        29.61F
$$

...UNOFFICIAL OBSERVATIONS...

CITY           SKY/WX    TMP DP  RH WIND       PRES   REMARKS
LENORA KS        N/A     43  32  65 SE6         N/A
NORTON KS      CLOUDY    41  39  93 SE6       29.62F
TRENTON NEB      N/A     32  32 100 CALM        N/A
KIT CARSON CO    N/A     46  29  51 MISG        N/A
YUMA CO        FAIR      37  27  65 W6        29.60F
$$



USA.gov is the U.S. government's official web portal to all federal, state and local government web resources and services.